[[{"header":{"parameterUnit":"m.s-1","parameterCategory":1,"la1":30.2991,"la2":30.254,"lo1":-89.0895,"lo2":-89.0444,"dy":0.0017,"dx":0.0017,"nx":28,"ny":28,"refTime":"2023-09-28T03:00:00:Z","depth":0,"parameterNumber":2,"parameterNumberName":"U-component_of_WINDS"},"data":[0,0,0,0,0,0,0,0,0,0,0,0,0,0,0,0,0,0,0,0,0,0,0,0,0,0,0,0,0,0,0,0,0,0,0,0,0,0,0,0,0,0,0,0,0,0,0,0,0,0,0,0,0,0,0,0,0,0,-4.9619,-4.9619,0,-4.9641,-4.9641,-4.9642,-4.9529,-4.9526,-4.9523,-4.952,-4.9544,-4.9548,-4.9551,0,0,0,0,0,0,0,0,0,0,0,0,0,-4.948,-4.9483,-4.9618,-4.9619,-4.9619,-4.9641,-4.9641,-4.9642,-4.953,-4.9526,-4.9522,-4.9518,-4.9543,-4.9547,-4.9552,0,0,0,0,0,0,0,0,0,0,0,0,0,-4.9525,-4.9484,-4.9618,-4.9566,-4.9561,-4.9641,-4.9641,-4.9642,-4.9531,-4.9526,-4.9521,-4.9516,-4.9541,-4.9547,-4.9552,-4.9684,0,0,-4.9569,-4.9572,0,0,0,0,0,0,0,0,-4.9523,-4.953,-4.9573,-4.957,-4.9565,-4.9577,-4.9601,-4.9656,-4.9532,-4.9542,-4.9519,-4.9514,-4.9559,-4.9563,-4.9578,-4.9685,-4.9686,-4.957,-4.9573,-4.9575,-4.9577,0,0,0,0,0,0,0,-4.952,-4.9529,-4.9627,-4.9574,-4.9569,-4.9541,-4.9543,-4.9611,-4.9578,-4.9541,-4.9533,-4.9537,-4.9556,-4.9573,-4.9578,-4.9687,-4.9569,-4.9574,-4.9578,-4.958,-4.9905,-4.991,0,0,0,0,0,0,-4.9523,-4.9527,-4.9627,-4.9628,-4.9531,-4.9548,-4.9549,-4.9578,-4.9577,-4.9572,-4.9541,-4.9532,-4.9566,-4.9571,-4.9578,-4.9733,-4.9575,-4.958,-4.9584,-4.9899,-4.9906,-4.9912,0,0,0,0,0,0,-4.9521,-4.9533,-4.9626,-4.9575,-4.9585,-4.9556,-4.9589,-4.9581,-4.9598,-4.9577,-4.957,-4.9565,-4.9562,-4.957,-4.9659,-4.9733,-4.9583,-4.9588,-4.9893,-4.9901,-4.9909,-5.0045,0,0,0,0,0,0,-4.9517,-4.9533,-4.9582,-4.9577,-4.9588,-4.9706,-4.9594,-4.9585,-4.9608,-4.9596,-4.9597,-4.9593,-4.9559,-4.9651,-4.9664,-4.9738,-4.9592,-4.9886,-4.9897,-4.9906,-5.0034,-5.0057,-5.0076,0,0,0,0,0,-4.9513,-4.962,-4.9586,-4.9598,-4.9649,-4.971,-4.9717,-4.9675,-4.9614,-4.9664,-4.965,-4.9593,-4.9722,-4.9661,-4.9675,-4.9751,-4.9882,-4.9894,-4.9905,-5.0024,-5.0052,-5.0076,0,0,0,0,0,0,-4.9635,-4.9618,-4.958,-4.9688,-4.9702,-4.9691,-4.9753,-4.9706,-4.9737,-4.9724,-4.9672,-4.9673,-4.9771,-4.977,-4.9702,-4.9879,-4.9791,-4.9807,-4.9877,-4.9903,-4.9924,-4.9923,-4.9597,0,0,0,0,0,-4.9674,-4.9725,-4.9708,-4.9805,-4.9814,-4.9783,-4.9808,-4.9775,-4.9786,-4.9792,-4.9784,-4.9799,-4.9842,-4.9872,-4.9912,-5.0033,-5.0032,-5.0092,-5.0113,-5.0131,-5.0145,-5.021,-5.0237,-4.9951,-4.9951,-4.9951,0,0,-4.9756,-4.9754,-4.9789,-4.983,-4.9836,-4.9891,-4.9788,-4.985,-4.989,-4.9801,-4.9884,-4.988,-4.9892,-4.9998,-5.0044,-5.0,-5.0224,-5.0146,-5.016,-5.0165,-5.0225,-5.0253,-5.0277,-4.9959,-4.9957,-4.9956,0,0,-4.9934,-4.9937,-5.0019,-5.0028,-5.0039,-5.0017,-5.0037,-5.0034,-5.0028,-5.011,-5.0045,-5.0093,-5.0169,-5.0181,-5.0197,-5.0381,-5.0329,-5.0395,-5.0506,-5.057,-5.0593,-5.0613,-5.068,-5.0704,-5.0409,-5.0409,-5.0409,0,-5.0035,-5.0114,-5.0067,-5.0134,-5.0154,-5.0076,-5.016,-5.017,-5.0194,-5.021,-5.016,-5.0255,-5.0257,-5.0366,-5.0411,-5.0426,-5.0448,-5.0395,-5.0593,-5.0613,-5.0631,-5.0694,-5.0719,-5.0417,-5.0416,-5.0415,-5.0415,0,-5.0239,-5.0295,-5.036,-5.0385,-5.0412,-5.0487,-5.0452,-5.0486,-5.0451,-5.0435,-5.0521,-5.0521,-5.056,-5.0583,-5.0549,-5.0687,-5.0659,-5.0602,-5.0513,-5.0667,-5.0725,-5.0749,-5.0428,-5.0426,-5.0423,-5.0421,0,0,-5.0495,-5.0493,-5.0518,-5.0529,-5.0535,-5.0578,-5.065,-5.0687,-5.0718,-5.0737,-5.0796,-5.0863,-5.081,-5.0829,-5.0796,-5.0852,-5.1,-5.0788,-5.0787,-5.0829,-5.1154,-5.1198,-5.1227,-5.0965,-5.0969,-5.0973,-5.1153,0,-5.067,-5.0792,-5.0752,-5.0876,-5.0928,-5.0855,-5.0917,-5.0929,-5.0916,-5.0959,-5.0944,-5.0994,-5.0919,-5.093,-5.0983,-5.0971,-5.1064,-5.0957,-5.1021,-5.1024,-5.1022,-5.1257,-5.1303,-5.1473,-5.1176,-5.1179,-5.1182,0,-5.0891,-5.0919,-5.1049,-5.1048,-5.1068,-5.1125,-5.1156,-5.1198,-5.121,-5.1196,-5.1218,-5.1173,-5.1244,-5.1154,-5.1252,-5.118,-5.1204,-5.1202,-5.1208,-5.1213,-5.1114,-5.127,-5.1526,-5.1553,-5.1218,-5.1215,-5.1212,0,-5.1067,-5.1137,-5.1223,-5.1235,-5.1235,-5.1277,-5.128,-5.1286,-5.1312,-5.134,-5.1356,-5.1392,-5.1412,-5.1442,-5.1408,-5.1346,-5.1512,-5.1419,-5.1504,-5.1506,-5.1544,-5.1542,-5.1809,-5.1557,-5.1557,-5.1556,-5.1556,0,-5.1267,-5.135,-5.1302,-5.1356,-5.1447,-5.14,-5.1491,-5.1485,-5.1492,-5.1544,-5.1483,-5.1533,-5.1485,-5.1531,-5.1505,-5.1591,-5.16,-5.1593,-5.1585,-5.1599,-5.16,-5.1615,-5.1603,-5.1563,-5.1562,-5.156,-5.1559,0,-5.1479,-5.1451,-5.1541,-5.1534,-5.1534,-5.1602,-5.1596,-5.1646,-5.1629,-5.1695,-5.1708,-5.1682,-5.1733,-5.1702,-5.1754,-5.1737,-5.185,-5.1825,-5.1846,-5.184,-5.1928,-5.1921,-5.2215,-5.2252,-5.1975,-5.1978,-5.198,0,-5.161,-5.1672,-5.1672,-5.1702,-5.1709,-5.1758,-5.1784,-5.1741,-5.177,-5.1789,-5.1837,-5.1883,-5.1917,-5.2002,-5.1988,-5.2028,-5.2005,-5.2105,-5.2011,-5.2023,-5.2009,-5.2006,-5.2013,-5.2125,-5.2128,-5.2131,-5.2133,0,-5.1846,-5.1829,-5.1868,-5.1904,-5.1936,-5.1962,-5.1982,-5.2011,-5.1967,-5.2004,-5.2055,-5.2082,-5.2135,-5.2182,-5.2216,-5.2219,-5.217,-5.2163,-5.2185,-5.2201,-5.2211,-5.2208,-5.19,-5.2157,-5.2154,-5.2153,-5.2151,-5.215,-5.2022,-5.2074,-5.2083,-5.2129,-5.214,-5.2161,-5.2208,-5.2197,-5.2239,-5.2279,-5.2251,-5.2312,-5.2323,-5.2364,-5.2373,-5.2421,-5.2381,-5.2413,-5.2421,-5.243,-5.2443,-5.2202,-5.2427,-5.2426,-5.2426,-5.2425,-5.2425,0,-5.2256,-5.2258,-5.2301,-5.2332,-5.2369,-5.2318,-5.2339,-5.2374,-5.2428,-5.2443,-5.2478,-5.2538,-5.2583,-5.2573,-5.2614,-5.2655,-5.2633,-5.2667,-5.2664,-5.2666,-5.2476,-5.2453,-5.2684,-5.2684,-5.2684,-5.2684,-5.2684,-5.2684,-5.2382,-5.2468,-5.2452,-5.2544,-5.2545,-5.2604,-5.2621,-5.264,-5.2651,-5.2721,-5.2758,-5.2751,-5.2756,-5.2797,-5.2837,-5.2833,-5.2852,-5.2894,-5.2883,-5.2705,-5.2679,-5.2655,-5.2634,-5.2898,-5.2899,-5.3069,-5.3071,-5.3072]},{"header":{"parameterUnit":"m.s-1","parameterCategory":1,"la1":30.2991,"la2":30.254,"lo1":-89.0895,"lo2":-89.0444,"dy":0.0017,"dx":0.0017,"nx":28,"ny":28,"refTime":"2023-09-28T03:00:00:Z","depth":0,"parameterNumber":3,"parameterNumberName":"V-component_of_WINDS"},"data":[0,0,0,0,0,0,0,0,0,0,0,0,0,0,0,0,0,0,0,0,0,0,0,0,0,0,0,0,0,0,0,0,0,0,0,0,0,0,0,0,0,0,0,0,0,0,0,0,0,0,0,0,0,0,0,0,0,0,-1.6581,-1.6581,0,-1.6573,-1.6572,-1.6572,-1.6528,-1.6527,-1.6526,-1.6525,-1.6518,-1.6519,-1.652,0,0,0,0,0,0,0,0,0,0,0,0,0,-1.656,-1.656,-1.6581,-1.6581,-1.6581,-1.6573,-1.6572,-1.6572,-1.6529,-1.6527,-1.6526,-1.6525,-1.6518,-1.6519,-1.652,0,0,0,0,0,0,0,0,0,0,0,0,0,-1.6562,-1.6561,-1.6581,-1.6558,-1.6556,-1.6573,-1.6572,-1.6572,-1.6529,-1.6527,-1.6526,-1.6524,-1.6518,-1.6519,-1.652,-1.6559,0,0,-1.6524,-1.6524,0,0,0,0,0,0,0,0,-1.6562,-1.6563,-1.6561,-1.6559,-1.6557,-1.655,-1.6562,-1.6568,-1.6529,-1.6539,-1.6525,-1.6523,-1.653,-1.653,-1.6532,-1.6559,-1.6559,-1.6524,-1.6525,-1.6525,-1.6526,0,0,0,0,0,0,0,-1.6562,-1.6563,-1.6578,-1.6561,-1.6559,-1.6548,-1.6547,-1.6563,-1.6544,-1.6538,-1.6535,-1.6534,-1.6529,-1.6531,-1.6532,-1.6559,-1.6524,-1.6525,-1.6526,-1.6526,-1.6616,-1.6618,0,0,0,0,0,0,-1.6565,-1.6563,-1.6578,-1.6577,-1.6556,-1.655,-1.6548,-1.6554,-1.6543,-1.654,-1.6536,-1.6532,-1.653,-1.6531,-1.6531,-1.6576,-1.6525,-1.6526,-1.6527,-1.6615,-1.6617,-1.6619,0,0,0,0,0,0,-1.6565,-1.6567,-1.6578,-1.6569,-1.657,-1.6552,-1.6559,-1.6554,-1.6557,-1.6542,-1.6538,-1.6542,-1.6529,-1.653,-1.6552,-1.6576,-1.6527,-1.6528,-1.6613,-1.6615,-1.6618,-1.6667,0,0,0,0,0,0,-1.6564,-1.6567,-1.6581,-1.657,-1.6571,-1.6599,-1.656,-1.6555,-1.6559,-1.6554,-1.6546,-1.6544,-1.6528,-1.6551,-1.6554,-1.6576,-1.6529,-1.6611,-1.6614,-1.6617,-1.6663,-1.6671,-1.6677,0,0,0,0,0,-1.6564,-1.6596,-1.6582,-1.6584,-1.6589,-1.6601,-1.6601,-1.6582,-1.6561,-1.6575,-1.6565,-1.6544,-1.6572,-1.6554,-1.6556,-1.658,-1.6609,-1.6613,-1.6617,-1.666,-1.6669,-1.6677,0,0,0,0,0,0,-1.6612,-1.6594,-1.6579,-1.6609,-1.6606,-1.6593,-1.6611,-1.6592,-1.6597,-1.6592,-1.6568,-1.6567,-1.6593,-1.6589,-1.6568,-1.6617,-1.6587,-1.6592,-1.6619,-1.6628,-1.6635,-1.6635,-1.653,0,0,0,0,0,-1.6625,-1.6636,-1.6621,-1.6649,-1.6648,-1.663,-1.6635,-1.662,-1.6617,-1.6616,-1.6607,-1.6606,-1.6614,-1.6621,-1.6628,-1.6662,-1.6659,-1.6679,-1.6686,-1.6692,-1.6697,-1.6714,-1.6722,-1.6631,-1.6631,-1.6631,0,0,-1.6655,-1.6646,-1.6655,-1.6658,-1.6654,-1.6667,-1.663,-1.6644,-1.6653,-1.6618,-1.6639,-1.6633,-1.6629,-1.6658,-1.667,-1.6655,-1.6721,-1.6697,-1.6702,-1.6703,-1.6719,-1.6727,-1.6735,-1.6633,-1.6633,-1.6633,0,0,-1.6714,-1.6709,-1.6731,-1.6728,-1.6723,-1.671,-1.6716,-1.6705,-1.67,-1.672,-1.6694,-1.6704,-1.6719,-1.6718,-1.6719,-1.6776,-1.6757,-1.6779,-1.6817,-1.6834,-1.6841,-1.6847,-1.6868,-1.6876,-1.6784,-1.6784,-1.6784,0,-1.6751,-1.6768,-1.6745,-1.6761,-1.6763,-1.6731,-1.6753,-1.6752,-1.675,-1.6752,-1.6735,-1.6752,-1.6748,-1.6776,-1.6789,-1.6791,-1.6797,-1.6781,-1.6842,-1.6848,-1.6853,-1.6873,-1.6881,-1.6787,-1.6786,-1.6786,-1.6786,0,-1.6814,-1.6826,-1.6844,-1.6842,-1.6846,-1.6866,-1.6846,-1.6853,-1.6837,-1.6826,-1.6847,-1.684,-1.6845,-1.685,-1.6836,-1.6876,-1.6867,-1.6846,-1.6816,-1.6865,-1.6883,-1.6891,-1.6791,-1.679,-1.6789,-1.6788,0,0,-1.6905,-1.6888,-1.6895,-1.6894,-1.6885,-1.6894,-1.6912,-1.6916,-1.6922,-1.6921,-1.6936,-1.6949,-1.6929,-1.6931,-1.6915,-1.693,-1.6976,-1.6908,-1.6907,-1.6921,-1.702,-1.7036,-1.7045,-1.6963,-1.6964,-1.6965,-1.702,0,-1.6961,-1.699,-1.697,-1.7002,-1.7013,-1.6982,-1.6997,-1.6993,-1.6984,-1.6992,-1.6981,-1.6991,-1.6964,-1.6965,-1.6978,-1.6968,-1.6996,-1.6963,-1.6976,-1.6977,-1.6979,-1.7054,-1.7071,-1.7124,-1.7027,-1.7028,-1.7029,0,-1.7032,-1.7033,-1.7067,-1.7055,-1.7059,-1.7073,-1.7074,-1.7082,-1.7077,-1.7069,-1.707,-1.7051,-1.7067,-1.7037,-1.706,-1.7038,-1.7042,-1.7037,-1.7039,-1.704,-1.7007,-1.7058,-1.7141,-1.7149,-1.704,-1.7039,-1.7038,0,-1.7095,-1.7105,-1.7126,-1.7125,-1.7112,-1.7123,-1.7118,-1.7112,-1.7115,-1.7116,-1.7118,-1.7122,-1.7124,-1.7128,-1.711,-1.7089,-1.7135,-1.7103,-1.7129,-1.713,-1.7141,-1.714,-1.7226,-1.7143,-1.7142,-1.7142,-1.7142,0,-1.7161,-1.7183,-1.7154,-1.7167,-1.719,-1.7166,-1.719,-1.7182,-1.7176,-1.7187,-1.7161,-1.7172,-1.7147,-1.7156,-1.7142,-1.7163,-1.7164,-1.7158,-1.7154,-1.7161,-1.7162,-1.7163,-1.716,-1.7144,-1.7144,-1.7143,-1.7143,0,-1.7236,-1.7217,-1.7238,-1.7224,-1.722,-1.7238,-1.7226,-1.7237,-1.7225,-1.724,-1.7242,-1.7223,-1.7232,-1.7214,-1.722,-1.7211,-1.724,-1.723,-1.7242,-1.7239,-1.7266,-1.7264,-1.7356,-1.7367,-1.7277,-1.7278,-1.7278,0,-1.728,-1.7295,-1.7282,-1.7287,-1.7283,-1.7292,-1.7295,-1.7272,-1.7276,-1.7271,-1.7283,-1.7289,-1.7293,-1.7309,-1.7296,-1.7301,-1.7291,-1.7323,-1.7292,-1.7298,-1.7292,-1.7291,-1.7293,-1.733,-1.7331,-1.7332,-1.7332,0,-1.7359,-1.7349,-1.7354,-1.7355,-1.7359,-1.736,-1.7358,-1.7364,-1.7339,-1.7346,-1.7353,-1.7356,-1.7362,-1.7369,-1.737,-1.7366,-1.7345,-1.7342,-1.7348,-1.7356,-1.7362,-1.7359,-1.726,-1.734,-1.734,-1.7339,-1.7339,-1.7338,-1.742,-1.7432,-1.7424,-1.743,-1.7426,-1.7426,-1.7435,-1.7424,-1.743,-1.7433,-1.7418,-1.743,-1.7424,-1.7424,-1.7421,-1.743,-1.7415,-1.7425,-1.7427,-1.743,-1.7434,-1.736,-1.743,-1.743,-1.7429,-1.7429,-1.7429,0,-1.7498,-1.7491,-1.7497,-1.7495,-1.75,-1.7479,-1.7476,-1.7482,-1.7491,-1.7487,-1.7491,-1.75,-1.7506,-1.7494,-1.7498,-1.7507,-1.7498,-1.7509,-1.7508,-1.7508,-1.7447,-1.7441,-1.7517,-1.7517,-1.7516,-1.7516,-1.7516,-1.7516,-1.7539,-1.7559,-1.7547,-1.7565,-1.7558,-1.7568,-1.7568,-1.7567,-1.7563,-1.7574,-1.7579,-1.757,-1.7563,-1.7566,-1.7571,-1.7567,-1.757,-1.7584,-1.7577,-1.7521,-1.7512,-1.7504,-1.7498,-1.7585,-1.7585,-1.7638,-1.7638,-1.7639]}]]